Location: Cedar Brake
(32.2526°N, 97.8459°W)
Time: 20:58:56
(UTC+00:00)

Okean O Rocket - Pass Details

Date: 22 April 2026
Orbit: 613 x 634 km, 98.0° (Epoch: 21 May)

Event Time Altitude Azimuth Distance (km) Brightness Sun altitude
Exits shadow 03:03:34 29° 39° (NE) 1,140 2.8 -23.6°
Drops below altitude 10° 03:06:17 10° 8° (N) 1,991 4.5 -24.1°
Sets 03:08:36 0° 359° (N) 2,897 5.5 -24.5°
